Starlink 35063

operational
NORAD ID: 65528 Int'l Des: 2025-200 Owner: SPXS Country: US Constellation: starlink
LEOCIRCULARRETROGRADE

Starlink 35063について

説明を読み込み中...

リアルタイム位置

3D地球を読み込み中...

次回通過

高度履歴

Altitude vs Time

uPlot chart will show altitude changes over time

軌道要素

1 65528U 25200J 25304.65564398 .00060104 00000-0 15346-2 0 9997
2 65528 97.6052 12.4306 0001131 69.6765 290.4602 15.39275835 9705
Epoch: Oct 31, 2025 • Age: 7 hours

現在のステータス

高度 454.3 km
速度 7.64 km/s
衛星直下点 42.98°N, 179.16°W
打ち上げ日 Sep 6, 2025
運用期間 0.1 years
タイプ internet

技術仕様

分類 Payload
質量 575.00 kg
乾燥質量 530.00 kg
総質量 575.00 kg
長さ 0.30 m
直径 4.10 m
スパン 29.00 m
形状 Box + pan
製造者 SPXS
バスタイプ Starlink V2MO
フェーズステータス In Orbit
所有者/国 SPXS/US

大規模コンステレーション

Loading constellations...